#timestamp,LO_Frequency,Hit,StdDev 
1602588315.9,286046984.4,P
1602588335.7,286046985.2,P
1602588355.6,286046984.6,P
1602588375.4,286046985.1,Y
1602588395.3,286046996.9,P
1602588415.1,286046997.4,N
1602588416.0,286046997.4,N
1602588435.8,286046999.3,N
1602588455.7,286046998.6,N
1602588475.5,286046998.2,N
1602588495.3,286046996.9,N
1602588515.2,286046997.1,N
1602588535.0,286046997.5,N
1602588535.9,286046997.5,N
1602588555.8,286046993.7,N
1602588575.6,286046996.3,N
1602588595.4,286046995.5,N
1602588615.3,286046997.3,N
1602588635.1,286046997.1,N
1602588655.9,286046997.4,N
1602588675.7,286046997.2,N
1602588695.5,286046995.9,N
1602588715.4,286046994.4,N
1602588735.2,286046994.2,N
1602588755.0,286046991.8,N
1602588756.0,286046991.8,N
1602588775.8,286046994.2,N
1602588795.6,286046993.4,N
1602588815.5,286046997.4,N
1602588835.3,286046998.5,N
1602588855.1,286046998.1,N
1602588875.9,286046999.1,N
1602588895.7,286046995.9,N
1602588915.6,286046994.1,N
1602588935.4,286046994.7,N
1602588955.2,286046990.6,Y
1602588975.1,286046995.4,P
1602588976.0,286046995.4,P
1602588995.8,286046994.9,P
1602589015.7,286046995.2,Y
1602589035.5,286046999.8,P
1602589055.3,286046999.9,N
1602589075.2,286046999.4,N
1602589095.0,286046999.5,N
1602589095.9,286046999.5,N
1602589115.8,286046996.6,N
1602589135.6,286046997.7,N
1602589155.4,286046996.2,N
1602589175.3,286046994.9,Y
1602589195.1,286046999.1,P
1602589215.9,286046999.6,N
1602589235.7,286046998.6,N
1602589255.5,286047000.7,N
1602589275.4,286046998.5,N
1602589295.2,286046998.9,N
1602589315.0,286046998.4,N
1602589315.9,286046998.4,N
1602589335.8,286047000.9,N
1602589355.6,286047000.7,N
1602589375.5,286047000.6,N
1602589395.3,286047000.4,N
1602589415.1,286047002.1,N
1602589435.9,286047002.6,N
1602589455.7,286047002.2,N
1602589475.5,286047004.4,Y
1602589495.4,286047003.7,P
1602589515.2,286047004.5,N
1602589535.1,286047007.4,P
1602589536.0,286047007.4,N
1602589555.8,286047005.0,N
1602589575.6,286047006.3,N
1602589595.5,286047007.5,Y
1602589615.3,286047002.4,P
1602589635.1,286047000.6,N
1602589655.9,286047001.5,N
1602589675.7,286047003.8,N
1602589695.6,286047003.8,N
1602589715.4,286047002.1,N
1602589735.2,286047002.1,N
1602589755.1,286046999.9,N
1602589756.0,286046999.9,N
1602589775.8,286047001.2,N
1602589795.6,286046998.3,N
1602589815.5,286046999.4,N
1602589835.3,286046999.3,N
1602589855.2,286047000.8,N
1602589875.9,286047001.2,N
1602589895.7,286047000.8,N
1602589915.6,286046999.9,N
1602589935.4,286047000.2,N
1602589955.2,286047000.6,N
1602589975.1,286046998.2,N
1602589976.0,286046998.2,N
1602589995.8,286046996.5,N
1602590015.7,286046999.1,N
1602590035.5,286046999.4,N
1602590055.3,286046997.3,N
1602590075.2,286046997.6,N
1602590095.0,286046997.3,N
1602590095.9,286046997.3,N
1602590115.8,286046995.1,N
1602590135.6,286046995.4,N
1602590155.4,286046997.2,N
1602590175.3,286046999.6,N
1602590195.1,286046996.7,N
1602590215.8,286046996.6,N
1602590235.7,286046999.4,N
1602590255.5,286046998.3,N
1602590275.3,286047000.8,N
1602590295.2,286047000.9,N
1602590315.0,286046996.7,N
1602590315.9,286046996.7,N
1602590335.8,286046997.0,N
1602590355.6,286046996.4,N
1602590375.4,286046993.7,Y
1602590395.3,286046994.9,P
